Change the Weather History Date:

Thursday, May 22, 2014

  Actual Average Record
Temperature  
Mean Temperature 67 °F 62 °F  
Max Temperature 80 °F 76 °F 95 °F (2012)
Min Temperature 53 °F 49 °F 29 °F (1931)
Degree Days  
Heating Degree Days 0 5  
Month to date heating degree days 215 170  
Cooling Degree Days 2 2  
Month to date cooling degree days 12 22  
Year to date cooling degree days 13 23  
Growing Degree Days 16 (Base 50)    
Moisture  
Dew Point 53 °F    
Average Humidity 64    
Maximum Humidity 89    
Minimum Humidity 39    
Precipitation  
Precipitation 0.17 in 0.10 in 2.11 in (1976)
Sea Level Pressure  
Sea Level Pressure 30.10 in    
Wind  
Wind Speed 10 mph (ESE)    
Max Wind Speed 21 mph    
Max Gust Speed 27 mph    
Visibility 10 miles    
Events Rain , Thunderstorm    
T = Trace of Precipitation, MM = Missing Value Source: NWS Daily Summary

Daily Weather History Graph

Daily Weather History Graph

Search for Another Location

Airport or City:

Trip Planner

Search our weather history database for the weather conditions in past years. The results will help you decide how hot, cold, wet, or windy it might be!

Date:

Astronomy

May. 22, 2014 Rise Set
Actual Time 5:24 AM MDT 8:02 PM MDT
Civil Twilight 4:52 AM MDT 8:34 PM MDT
Nautical Twilight 4:12 AM MDT 9:14 PM MDT
Astronomical Twilight 3:28 AM MDT 9:59 PM MDT
Moon 1:46 AM MDT (5/22) 1:51 PM MDT (5/22)
Length of Visible Light 15h 42m
Length of Day
14h 38m
Last Quarter, 37% of the Moon is Illuminated
May 22
Last Quarter
May 28
New
Jun 5
First Quarter
Jun 12
Full
Jun 19
Last Quarter

Hourly Weather History & Observations

Time (MDT) Temp. Dew Point Humidity Pressure Visibility Wind Dir Wind Speed Gust Speed Precip Events Conditions
12:53 AM 57.0 °F 53.1 °F 87% 30.05 in 10.0 mi ESE 8.1 mph - N/A   Clear
1:53 AM 55.9 °F 51.1 °F 84% 30.04 in 10.0 mi ENE 6.9 mph - N/A   Clear
2:53 AM 55.9 °F 53.1 °F 90% 30.08 in 10.0 mi NNW 3.5 mph - 0.00 in Rain Light Rain
3:30 AM 55.9 °F 53.1 °F 90% 30.16 in 8.0 mi North 4.6 mph - 0.01 in Rain , Thunderstorm Light Rain
3:45 AM 55.9 °F 53.1 °F 90% 30.17 in 9.0 mi NW 4.6 mph - 0.01 in Rain Light Rain
3:53 AM 55.9 °F 53.1 °F 90% 30.09 in 7.0 mi NNE 4.6 mph - 0.02 in Rain Light Rain
4:53 AM 54.0 °F 51.1 °F 90% 30.09 in 10.0 mi North 9.2 mph - 0.00 in   Scattered Clouds
5:53 AM 53.1 °F 50.0 °F 89% 30.10 in 10.0 mi North 5.8 mph - N/A   Clear
6:53 AM 55.0 °F 50.0 °F 83% 30.09 in 10.0 mi East 8.1 mph - N/A   Clear
7:53 AM 57.0 °F 50.0 °F 77% 30.12 in 10.0 mi SE 8.1 mph - N/A   Clear
8:53 AM 62.1 °F 48.9 °F 62% 30.14 in 10.0 mi SE 13.8 mph - N/A   Clear
9:53 AM 64.9 °F 50.0 °F 58% 30.15 in 10.0 mi North - - N/A   Unknown
10:53 AM 68.0 °F 51.1 °F 55% 30.15 in 10.0 mi SE 8.1 mph - N/A   Clear
11:53 AM 70.0 °F 51.1 °F 51% 30.12 in 10.0 mi SE 8.1 mph - N/A   Partly Cloudy
12:53 PM 75.0 °F 51.1 °F 43% 30.09 in 10.0 mi ESE 8.1 mph - N/A   Clear
1:53 PM 78.1 °F 52.0 °F 40% 30.08 in 10.0 mi North - - N/A   Partly Cloudy
2:53 PM 77.0 °F 53.6 °F 44% 30.12 in 10.0 mi ESE 8.1 mph - N/A   Clear
3:53 PM 78.1 °F 52.0 °F 40% 30.03 in 10.0 mi ESE 8.1 mph 21.9 mph N/A   Partly Cloudy
4:53 PM 79.0 °F 53.1 °F 40% 30.03 in 10.0 mi SE 11.5 mph - N/A   Partly Cloudy
5:53 PM 77.0 °F 54.0 °F 45% 30.03 in 10.0 mi SE 13.8 mph - N/A   Scattered Clouds
6:53 PM 73.9 °F 54.0 °F 50% 30.04 in 10.0 mi ESE 17.3 mph 20.7 mph N/A   Mostly Cloudy
7:53 PM 71.1 °F 54.0 °F 55% 30.08 in 10.0 mi ESE 10.4 mph - N/A   Mostly Cloudy
8:53 PM 69.1 °F 55.0 °F 61% 30.08 in 10.0 mi ESE 12.7 mph - N/A   Partly Cloudy
9:53 PM 66.9 °F 55.9 °F 68% 30.10 in 10.0 mi ESE 12.7 mph - N/A   Clear
10:53 PM 66.0 °F 57.0 °F 73% 30.09 in 10.0 mi SE 10.4 mph - N/A Thunderstorm Partly Cloudy
11:16 PM 66.0 °F 57.0 °F 73% 30.17 in 10.0 mi SE 13.8 mph - N/A Thunderstorm Thunderstorm
11:44 PM 64.9 °F 57.0 °F 75% 30.16 in 10.0 mi SSE 10.4 mph - N/A Thunderstorm Mostly Cloudy
11:53 PM 64.9 °F 57.9 °F 78% 30.11 in 10.0 mi South 11.5 mph - N/A Thunderstorm Thunderstorm